Powrót do katalogu

COSMOS 2251 DEB

AktywnyVLEO
NORAD 37518·DEBRIS·🇷🇺 Russia

Wystrzelony Jun 16, 1993 z Plesetsk Cosmodrome

Loading…

Następne Przeloty (najbliższe 24 godziny)

TLE

NieaktualneSource: Space-Track

Epoka: Sep 7, 2026, 07:02 UTC

1 37518U 93036BMX 26250.29343112  .00137269  00000-0  27957-2 0  9995
2 37518  73.9600  98.3033 0019485 157.8491 202.3566 15.45465203699989

Śledź COSMOS 2251 DEB w czasie rzeczywistym z AllMySat

Download on the App Store